WetterOnline ( http://www.wetteronline.de )

Wetter aktuell Neroth

Aktuelles Wetter: Nürburg-Barweiler (488m)

6-stündlich | Neueste Meldungen
Ortszeit Temperatur Wetter
Do, 30.03. 8:00 8.8° C wolkig
Do, 30.03. 2:00 10.0° C bedeckt
Mi, 29.03. 20:00 11.6° C bedeckt
Mi, 29.03. 14:00 12.7° C bedeckt
Ortszeit Temperatur Wetter
Do, 30.03. 12:30 16.5° C wolkig
Do, 30.03. 12:00 15.9° C leicht bewölkt
Do, 30.03. 11:30 16.2° C leicht bewölkt
Do, 30.03. 11:00 15.5° C wolkig
Do, 30.03. 10:30 12.8° C wolkig
Do, 30.03. 10:00 13.5° C wolkig
Ortszeit Relative Feuchte Sichtweite
Do, 30.03. 8:00 81% 35 km
Do, 30.03. 2:00 80% 45 km
Mi, 29.03. 20:00 75% 35 km
Mi, 29.03. 14:00 62% 70 km
Ortszeit Relative Feuchte Sichtweite
Do, 30.03. 12:30 52% 60 km
Do, 30.03. 12:00 55% 40 km
Do, 30.03. 11:30 56% 35 km
Do, 30.03. 11:00 60% 35 km
Do, 30.03. 10:30 70% 45 km
Do, 30.03. 10:00 66% 40 km
Ortszeit Niederschlagsmenge Niederschlagsart
Do, 30.03. 8:00 0,0 l/m2 in 12 Std. -
Do, 30.03. 2:00 0,0 l/m2 in 6 Std. -
Mi, 29.03. 20:00 0,0 l/m2 in 12 Std. -
Mi, 29.03. 14:00 0,0 l/m2 in 6 Std. -
Ortszeit Niederschlagsmenge Niederschlagsart
Do, 30.03. 12:30 keine Meldung -
Do, 30.03. 12:00 0,0 l/m2 in 1 Std. -
Do, 30.03. 11:30 keine Meldung -
Do, 30.03. 11:00 0,0 l/m2 in 1 Std. -
Do, 30.03. 10:30 keine Meldung -
Do, 30.03. 10:00 0,0 l/m2 in 1 Std. -
Ortszeit Stärke Spitze Richtung
km/h Bft. km/h Grad Sektor
Do, 30.03. 8:00 11 2 14 190° S
Do, 30.03. 2:00 9 2 17 220° SW
Mi, 29.03. 20:00 7 2 36 240° SW
Mi, 29.03. 14:00 13 3 44 250° W
Ortszeit Stärke Spitze Richtung
km/h Bft. km/h Grad Sektor
Do, 30.03. 12:30 11 2 22 210° SW
Do, 30.03. 12:00 13 3 22 180° S
Do, 30.03. 11:30 9 2 19 190° S
Do, 30.03. 11:00 7 2 17 250° W
Do, 30.03. 10:30 6 1 17 290° W
Do, 30.03. 10:00 7 2 14 220° SW
Ortszeit Untergrenze Bedeckung Gattung
total tief tief mittel hoch
Do, 30.03. 8:00 2100 m 7/8 1/8 - - -
Do, 30.03. 2:00 990 m 8/8 8/8 - - -
Mi, 29.03. 20:00 1020 m 8/8 8/8 - - -
Mi, 29.03. 14:00 960 m 8/8 8/8 - - -
Ortszeit Bedeckungsgrad in Achtel und Wolkenuntergrenze
Do, 30.03. 12:30 6(8700m) 7(9000m) 8(10500m)
Do, 30.03. 12:00 6(8400m) 8(9000m) 8(9000m)
Do, 30.03. 11:30 1(2100m) 3(9000m) 5(9000m)
Do, 30.03. 11:00 6(2100m) 7(9000m)
Do, 30.03. 10:30 2(2100m) 6(9000m) 6(10500m)
Do, 30.03. 10:00 4(2100m) 5(9000m)
Ortszeit Luftdruck NN (hPa) Tendenz (hPa in 3 Std.)
Do, 30.03. 8:00 1027 - 0,2
Do, 30.03. 2:00 1028 + 0,3
Mi, 29.03. 20:00 1026 + 0,6
Mi, 29.03. 14:00 1026 + 0,5
Ortszeit Luftdruck NN (hPa) Tendenz (hPa in 3 Std.)
Do, 30.03. 12:30 1026 - 0,1
Do, 30.03. 12:00 1026 - 0,1
Do, 30.03. 11:30 1026 + 0,1
Do, 30.03. 11:00 1026 + 0,2
Do, 30.03. 10:30 1027 + 0,2
Do, 30.03. 10:00 1027 + 0,1
Ortszeit Schneehöhe (cm)
Do, 30.03. 8:00 -
Do, 30.03. 2:00 -
Mi, 29.03. 20:00 -
Mi, 29.03. 14:00 -
Ortszeit Schneehöhe (cm)
Do, 30.03. 12:30 -
Do, 30.03. 12:00 -
Do, 30.03. 11:30 -
Do, 30.03. 11:00 -
Do, 30.03. 10:30 -
Do, 30.03. 10:00 -
Link zu dieser Seite / Seite empfehlen

Das Wetter in ...